Location: Pasadena, ca
(34.1243°N, 118.1037°W)
Time: 14:32:45
(UTC-07:00)

ISS - Pass Details

Date: 11 October 2017
Orbit: 401 x 408 km, 51.6° (Epoch: 22 October)

Event Time Altitude Azimuth Distance (km) Brightness Sun altitude
Rises 20:33:34 0° 318° (NW) 2,325 0.8 -27.8°
Reaches altitude 10° 20:35:42 10° 324° (NW) 1,464 -0.5 -28.2°
Enters shadow 20:35:56 12° 325° (NW) 1,375 -0.6 -28.3°
